Weather History for Miles City, MT

Change the Weather History Date:

Tuesday, March 27, 2012

  Actual Average Record
Temperature  
Mean Temperature 52 °F 39 °F  
Max Temperature 63 °F 51 °F 82 °F (1946)
Min Temperature 40 °F 27 °F -3 °F (1937)
Degree Days  
Heating Degree Days 13 26  
Month to date heating degree days 509 841  
Since 1 July heating degree days 5442 6575  
Cooling Degree Days 0 0  
Month to date cooling degree days 0 0  
Year to date cooling degree days 0 0  
Growing Degree Days 2 (Base 50)    
Moisture  
Dew Point 27 °F    
Average Humidity 46    
Maximum Humidity 76    
Minimum Humidity 16    
Precipitation  
Precipitation T in 0.03 in 0.43 in (1950)
Month to date precipitation 0.01 0.49  
Year to date precipitation 0.68 1.04  
Sea Level Pressure  
Sea Level Pressure 29.81 in    
Wind  
Wind Speed 14 mph (WNW)    
Max Wind Speed 30 mph    
Max Gust Speed 43 mph    
Visibility 10 miles    
Events      
T = Trace of Precipitation, MM = Missing Value Source: NWS Daily Summary

Daily Weather History Graph

Daily Weather History Graph

Search for Another Location

Airport:

Trip Planner

Search our weather history database for the weather conditions in past years. The results will help you decide how hot, cold, wet, or windy it might be!

Date:

Astronomy

Mar. 27, 2012 Rise Set
Actual Time 6:51 AM MDT 7:26 PM MDT
Civil Twilight 6:21 AM MDT 7:56 PM MDT
Nautical Twilight 5:45 AM MDT 8:32 PM MDT
Astronomical Twilight 5:08 AM MDT 9:10 PM MDT
Moon 9:06 AM MDT (3/27) No Moon Set
Length of Visible Light 13h 35m
Length of Day
12h 34m
Waxing Crescent, 22% of the Moon is Illuminated
Mar 27
Waxing Crescent
Mar 30
First Quarter
Apr 6
Full
Apr 13
Last Quarter
Apr 21
New

Hourly Weather History & Observations

Time (MDT) Temp. Windchill Dew Point Humidity Pressure Visibility Wind Dir Wind Speed Gust Speed Precip Events Conditions
12:53 AM 46.9 °F - 36.0 °F 66% 29.56 in 10.0 mi WNW 24.2 mph 34.5 mph N/A   Overcast
1:53 AM 48.0 °F - 37.0 °F 66% 29.60 in 10.0 mi WNW 24.2 mph 31.1 mph N/A   Overcast
2:53 AM 48.0 °F - 37.0 °F 66% 29.63 in 10.0 mi WNW 20.7 mph 34.5 mph N/A   Overcast
3:53 AM 46.0 °F 40.2 °F 39.0 °F 76% 29.67 in 10.0 mi West 12.7 mph 21.9 mph 0.00 in   Overcast
4:53 AM 46.0 °F 38.3 °F 37.9 °F 73% 29.70 in 10.0 mi WNW 20.7 mph 28.8 mph N/A   Overcast
5:53 AM 45.0 °F 37.4 °F 36.0 °F 71% 29.74 in 10.0 mi WNW 18.4 mph 27.6 mph N/A   Overcast
6:53 AM 42.1 °F 34.5 °F 35.1 °F 76% 29.77 in 10.0 mi WNW 15.0 mph 21.9 mph N/A   Clear
7:53 AM 43.0 °F 37.2 °F 35.1 °F 74% 29.81 in 10.0 mi West 10.4 mph - N/A   Overcast
8:53 AM 46.9 °F - 35.1 °F 63% 29.83 in 10.0 mi WNW 17.3 mph 23.0 mph N/A   Clear
9:53 AM 51.1 °F - 34.0 °F 52% 29.83 in 10.0 mi WNW 18.4 mph 26.5 mph N/A   Clear
10:53 AM 55.9 °F - 28.0 °F 34% 29.84 in 10.0 mi WNW 20.7 mph 33.4 mph N/A   Clear
11:53 AM 55.9 °F - 28.9 °F 36% 29.86 in 10.0 mi WNW 21.9 mph 32.2 mph N/A   Clear
12:53 PM 57.9 °F - 25.0 °F 28% 29.85 in 10.0 mi WNW 23.0 mph 29.9 mph N/A   Mostly Cloudy
1:53 PM 61.0 °F - 23.0 °F 23% 29.84 in 10.0 mi WNW 12.7 mph 25.3 mph N/A   Mostly Cloudy
2:53 PM 62.1 °F - 15.1 °F 16% 29.85 in 10.0 mi WNW 19.6 mph 36.8 mph N/A   Partly Cloudy
3:53 PM 62.1 °F - 18.0 °F 18% 29.85 in 10.0 mi NW 17.3 mph 31.1 mph N/A   Partly Cloudy
4:53 PM 62.6 °F - 17.6 °F 18% 29.85 in 10.0 mi NW 16.1 mph 25.3 mph N/A   Clear
5:53 PM 61.0 °F - 18.0 °F 19% 29.86 in 10.0 mi WNW 13.8 mph - N/A   Clear
6:53 PM 55.9 °F - 18.0 °F 23% 29.89 in 10.0 mi NW 8.1 mph - N/A   Clear
7:53 PM 51.1 °F - 19.0 °F 28% 29.91 in 10.0 mi NNE 5.8 mph - N/A   Clear
8:53 PM 48.0 °F - 19.9 °F 33% 29.92 in 10.0 mi NE 6.9 mph - N/A   Clear
9:53 PM 46.9 °F - 21.0 °F 36% 29.93 in 10.0 mi NE 5.8 mph - N/A   Clear
10:53 PM 44.1 °F 40.8 °F 21.0 °F 40% 29.94 in 10.0 mi SE 5.8 mph - N/A   Clear
11:53 PM 42.1 °F 37.1 °F 21.0 °F 43% 29.95 in 10.0 mi SSE 8.1 mph - N/A   Clear